FW7740 Weather Reports


Display with metric or nautical units.
time (UTC)temp
F
wind
direction
speed
MPH
gust
MPH
rain 1hr
in
rain 24hr
in
rain mn
in
humidity
%
barometer
mb
20260902053103 73 312 0.0 0.0 0.00 0.00 0.00 85 1017.6
20260902052557 73 312 0.0 0.0 0.00 0.00 0.00 85 1017.3
20260902052053 73 312 0.0 0.0 0.00 0.00 0.00 85 1017.6
20260902051552 73 312 0.0 0.0 0.00 0.00 0.00 85 1017.3
20260902051052 73 312 0.0 0.0 0.00 0.00 0.00 85 1017.3
20260902050546 73 312 0.0 0.0 0.00 0.00 0.00 85 1017.3
20260902050042 73 312 0.0 0.0 0.00 0.00 0.00 85 1017.3
20260902045537 73 312 0.0 0.0 0.00 0.00 0.00 85 1017.6
20260902045033 73 312 0.0 0.0 0.00 0.00 0.00 85 1017.6
20260902044533 73 312 0.0 0.0 0.00 0.00 0.00 84 1017.3
20260902044028 73 312 0.0 0.0 0.00 0.00 0.00 84 1017.3
20260902043524 73 312 0.0 0.0 0.00 0.00 0.00 84 1017.3
20260902043024 74 312 0.0 0.0 0.00 0.00 0.00 84 1017.3
20260902042524 74 312 0.0 0.0 0.00 0.00 0.00 83 1017.3
20260902042020 74 312 0.0 0.0 0.00 0.00 0.00 83 1017.3
20260902041519 74 312 0.0 0.0 0.00 0.00 0.00 82 1017.3
20260902041014 74 312 0.0 0.0 0.00 0.00 0.00 82 1017.3
20260902040514 75 312 0.0 0.0 0.00 0.00 0.00 82 1017.3
20260902040014 75 312 0.0 0.0 0.00 0.00 0.00 82 1017.3
20260902035508 75 312 0.0 0.0 0.00 0.00 0.00 82 1017.0
20260902035004 75 312 0.0 0.0 0.00 0.00 0.00 81 1017.0
20260902034502 75 312 0.0 0.0 0.00 0.00 0.00 81 1017.3
20260902033956 75 312 0.0 0.0 0.00 0.00 0.00 81 1017.3
20260902033456 75 312 0.0 0.0 0.00 0.00 0.00 81 1017.3
20260902032955 75 312 0.0 0.0 0.00 0.00 0.00 80 1017.3
20260902032449 75 312 0.0 0.0 0.00 0.00 0.00 80 1017.0
20260902031944 75 312 0.0 0.0 0.00 0.00 0.00 80 1017.0
20260902031434 76 312 0.0 0.0 0.00 0.00 0.00 79 1017.0
20260902030930 76 312 0.0 0.0 0.00 0.00 0.00 78 1017.3
20260902030424 76 312 0.0 0.0 0.00 0.00 0.00 78 1017.0
20260902025923 76 312 0.0 0.0 0.00 0.00 0.00 78 1017.0
20260902025419 76 312 0.0 0.0 0.00 0.00 0.00 77 1017.0
20260902024914 77 312 0.0 0.0 0.00 0.00 0.00 77 1017.0
20260902024409 77 312 0.0 0.0 0.00 0.00 0.00 76 1017.0
20260902023904 77 312 0.0 0.0 0.00 0.00 0.00 76 1016.6
20260902023400 77 312 0.0 0.0 0.00 0.00 0.00 76 1016.6
20260902022859 77 312 0.0 0.0 0.00 0.00 0.00 75 1016.6
20260902022348 77 312 0.0 0.0 0.00 0.00 0.00 75 1017.0
20260902021845 78 312 0.0 0.0 0.00 0.00 0.00 74 1016.3
20260902021339 78 312 0.0 0.0 0.00 0.00 0.00 74 1016.6
20260902020835 78 312 0.0 0.0 0.00 0.00 0.00 73 1016.6
20260902020331 78 312 0.0 0.0 0.00 0.00 0.00 72 1016.3
20260902015826 79 312 0.0 0.0 0.00 0.00 0.00 72 1016.3
20260902015322 79 312 0.0 0.0 0.00 0.00 0.00 72 1016.3
20260902014817 79 312 0.0 0.0 0.00 0.00 0.00 70 1016.3
20260902014314 80 312 0.0 0.0 0.00 0.00 0.00 70 1016.3
20260902013812 80 312 0.0 0.0 0.00 0.00 0.00 69 1016.3
20260902013308 80 312 0.0 0.0 0.00 0.00 0.00 68 1016.3
20260902012803 80 312 0.0 0.0 0.00 0.00 0.00 68 1015.9
20260902012259 81 312 0.0 0.0 0.00 0.00 0.00 66 1015.9
20260902011755 81 312 0.0 0.0 0.00 0.00 0.00 66 1015.9
20260902011254 82 312 0.0 0.0 0.00 0.00 0.00 64 1015.9
20260902010753 82 312 0.0 0.0 0.00 0.00 0.00 64 1015.9
20260902010249 82 312 0.0 0.0 0.00 0.00 0.00 64 1015.6
20260902005747 83 312 0.0 0.0 0.00 0.00 0.00 63 1015.9
20260902005243 84 312 0.0 0.0 0.00 0.00 0.00 61 1015.9
20260902004742 84 312 0.0 0.0 0.00 0.00 0.00 60 1015.9
20260902004238 84 312 0.0 0.0 0.00 0.00 0.00 59 1015.6
20260902003727 85 313 0.0 0.0 0.00 0.00 0.00 58 1015.9
20260902003223 86 313 0.0 0.0 0.00 0.00 0.00 56 1016.3
20260902002718 86 313 0.0 0.0 0.00 0.00 0.00 54 1016.3
20260902002212 87 313 0.0 0.0 0.00 0.00 0.00 52 1016.3
20260902001708 88 313 0.0 0.0 0.00 0.00 0.00 51 1015.9
20260902001207 88 313 0.0 0.0 0.00 0.00 0.00 50 1015.9
20260902000702 89 313 0.0 0.0 0.00 0.00 0.00 48 1016.3
20260902000157 90 313 0.0 0.0 0.00 0.00 0.00 46 1016.3
20260901235656 90 313 0.0 0.0 0.00 0.00 0.00 45 1015.9
20260901235153 91 313 0.0 0.0 0.00 0.00 0.00 43 1016.3
20260901234652 92 313 0.0 0.0 0.00 0.00 0.00 41 1016.3
20260901234147 93 314 0.0 0.0 0.00 0.00 0.00 39 1016.3
20260901233642 93 314 0.0 0.0 0.00 0.00 0.00 39 1016.3
20260901233138 94 314 0.0 0.0 0.00 0.00 0.00 38 1016.3
20260901232638 94 316 0.0 0.0 0.00 0.00 0.00 39 1016.6
20260901232133 94 316 0.0 0.0 0.00 0.00 0.00 38 1016.3
20260901231630 95 319 0.0 0.0 0.00 0.00 0.00 37 1016.3
20260901231126 95 307 0.0 0.0 0.00 0.00 0.00 37 1016.3
20260901230621 95 307 0.0 0.0 0.00 0.00 0.00 37 1016.3
20260901230116 95 307 0.0 0.0 0.00 0.00 0.00 37 1016.3
20260901225611 95 302 1.0 1.0 0.00 0.00 0.00 37 1016.3
20260901225111 95 158 3.0 5.0 0.00 0.00 0.00 37 1016.3
20260901224607 95 319 0.0 0.0 0.00 0.00 0.00 36 1016.3
20260901224103 95 319 0.0 0.0 0.00 0.00 0.00 37 1016.3
20260901223558 95 285 0.0 0.0 0.00 0.00 0.00 37 1016.3
20260901223053 95 285 0.0 0.0 0.00 0.00 0.00 37 1016.3
20260901222549 95 286 0.0 0.0 0.00 0.00 0.00 37 1016.3
20260901222044 96 285 0.0 0.0 0.00 0.00 0.00 36 1016.3
20260901221540 96 285 0.0 0.0 0.00 0.00 0.00 36 1016.3
20260901221035 97 317 0.0 0.0 0.00 0.00 0.00 35 1016.3
20260901220535 96 287 0.0 1.0 0.00 0.00 0.00 35 1015.9
20260901220034 97 318 1.0 1.0 0.00 0.00 0.00 35 1016.3
20260901215532 97 296 0.0 0.0 0.00 0.00 0.00 35 1016.3
20260901215026 98 318 0.0 0.0 0.00 0.00 0.00 34 1016.3
20260901214525 99 156 2.0 2.0 0.00 0.00 0.00 31 1016.3
20260901214020 99 291 1.0 1.0 0.00 0.00 0.00 32 1016.3
20260901213519 100 305 0.0 0.0 0.00 0.00 0.00 33 1016.6
20260901213014 100 285 1.0 1.0 0.00 0.00 0.00 32 1016.3
20260901212508 101 333 1.0 1.0 0.00 0.00 0.00 30 1016.3
20260901212005 102 177 2.0 2.0 0.00 0.00 0.00 29 1016.3
20260901211500 101 298 1.0 1.0 0.00 0.00 0.00 30 1016.6
20260901210956 101 139 4.0 6.0 0.00 0.00 0.00 30 1016.6
20260901210447 101 248 2.0 2.0 0.00 0.00 0.00 31 1016.6
20260901205942 101 195 1.0 2.0 0.00 0.00 0.00 30 1016.6
20260901205437 101 225 3.0 3.0 0.00 0.00 0.00 30 1017.0
20260901204931 101 128 3.0 2.0 0.00 0.00 0.00 30 1016.6
20260901204428 103 125 3.0 2.0 0.00 0.00 0.00 29 1017.0
20260901203927 102 326 0.0 0.0 0.00 0.00 0.00 29 1016.6
20260901203423 102 11 1.0 1.0 0.00 0.00 0.00 30 1016.6
20260901202917 102 1 1.0 1.0 0.00 0.00 0.00 30 1017.3
20260901202414 103 336 3.0 5.0 0.00 0.00 0.00 30 1017.3
20260901201909 101 308 0.0 0.0 0.00 0.00 0.00 31 1017.3
20260901201408 100 311 1.0 1.0 0.00 0.00 0.00 32 1017.3
20260901200902 100 15 3.0 5.0 0.00 0.00 0.00 31 1017.0
20260901200358 99 314 1.0 1.0 0.00 0.00 0.00 34 1017.3
20260901195856 99 288 1.0 1.0 0.00 0.00 0.00 32 1017.3
20260901195355 99 4 0.0 0.0 0.00 0.00 0.00 35 1017.3
20260901194850 98 7 1.0 1.0 0.00 0.00 0.00 33 1017.3
20260901194345 98 7 1.0 1.0 0.00 0.00 0.00 34 1017.3
20260901193842 98 200 2.0 2.0 0.00 0.00 0.00 34 1017.6
20260901193340 99 288 1.0 2.0 0.00 0.00 0.00 33 1017.6
20260901192835 100 250 0.0 0.0 0.00 0.00 0.00 33 1017.3
20260901192331 102 354 1.0 1.0 0.00 0.00 0.00 30 1017.6
20260901191827 102 302 0.0 0.0 0.00 0.00 0.00 30 1017.6
20260901191321 101 182 4.0 5.0 0.00 0.00 0.00 30 1017.6
20260901190817 100 230 3.0 3.0 0.00 0.00 0.00 32 1018.1
20260901190312 100 145 5.0 6.0 0.00 0.00 0.00 34 1018.1
20260901185810 99 26 1.0 1.0 0.00 0.00 0.00 34 1018.1
20260901185309 101 178 4.0 6.0 0.00 0.00 0.00 34 1018.1
20260901184805 100 334 3.0 2.0 0.00 0.00 0.00 34 1018.1
20260901184300 100 335 2.0 2.0 0.00 0.00 0.00 34 1018.1
20260901183756 100 0 1.0 1.0 0.00 0.00 0.00 33 1018.4
20260901183255 100 285 1.0 1.0 0.00 0.00 0.00 33 1018.4
20260901182751 100 0 1.0 1.0 0.00 0.00 0.00 33 1018.1
20260901182250 100 209 4.0 5.0 0.00 0.00 0.00 32 1018.4
20260901181745 99 266 2.0 2.0 0.00 0.00 0.00 35 1018.8
20260901181240 99 331 0.0 0.0 0.00 0.00 0.00 36 1018.4
20260901180739 99 253 3.0 3.0 0.00 0.00 0.00 35 1018.4
20260901180238 99 288 1.0 1.0 0.00 0.00 0.00 38 1019.1
20260901175738 99 1 2.0 2.0 0.00 0.00 0.00 37 1018.8
20260901175232 99 98 1.0 2.0 0.00 0.00 0.00 38 1019.1
20260901174727 98 254 3.0 3.0 0.00 0.00 0.00 39 1018.8
20260901174224 98 149 5.0 6.0 0.00 0.00 0.00 38 1019.1
20260901173719 98 208 2.0 2.0 0.00 0.00 0.00 39 1019.1
20260901173214 96 341 1.0 2.0 0.00 0.00 0.00 41 1019.4
20260901172710 96 143 4.0 5.0 0.00 0.00 0.00 41 1019.1
20260901172208 96 344 0.0 0.0 0.00 0.00 0.00 41 1019.4
20260901171707 96 313 4.0 6.0 0.00 0.00 0.00 40 1019.4
20260901171201 96 334 0.0 0.0 0.00 0.00 0.00 42 1019.4
20260901170701 96 25 1.0 2.0 0.00 0.00 0.00 40 1019.8
20260901170155 96 317 3.0 5.0 0.00 0.00 0.00 42 1019.8
20260901165654 95 303 0.0 0.0 0.00 0.00 0.00 42 1019.8
20260901165149 96 149 1.0 2.0 0.00 0.00 0.00 42 1019.8
20260901164646 95 179 3.0 3.0 0.00 0.00 0.00 42 1019.8
20260901164140 96 190 4.0 5.0 0.00 0.00 0.00 42 1020.1
20260901163636 95 85 2.0 3.0 0.00 0.00 0.00 42 1020.1
20260901163134 95 44 2.0 3.0 0.00 0.00 0.00 42 1019.8
20260901162630 95 227 3.0 3.0 0.00 0.00 0.00 43 1020.1
20260901162129 95 54 1.0 1.0 0.00 0.00 0.00 43 1019.8
20260901161628 94 246 2.0 2.0 0.00 0.00 0.00 44 1020.1
20260901161128 94 17 0.0 1.0 0.00 0.00 0.00 44 1020.1
20260901160625 94 338 2.0 2.0 0.00 0.00 0.00 44 1019.8
20260901160119 94 21 3.0 3.0 0.00 0.00 0.00 44 1019.8
20260901155618 94 139 2.0 3.0 0.00 0.00 0.00 44 1019.8
20260901155114 93 181 2.0 2.0 0.00 0.00 0.00 45 1019.8
20260901154614 93 182 3.0 5.0 0.00 0.00 0.00 45 1020.1
20260901154108 93 298 1.0 1.0 0.00 0.00 0.00 45 1019.8
20260901153604 93 230 2.0 3.0 0.00 0.00 0.00 46 1020.1
20260901153103 92 330 0.0 0.0 0.00 0.00 0.00 47 1019.8
20260901152558 91 170 5.0 6.0 0.00 0.00 0.00 49 1020.1
20260901152056 91 312 2.0 3.0 0.00 0.00 0.00 50 1020.1
20260901151553 91 314 1.0 1.0 0.00 0.00 0.00 50 1019.8
20260901151047 90 237 2.0 2.0 0.00 0.00 0.00 51 1020.1
20260901150544 89 125 4.0 3.0 0.00 0.00 0.00 52 1020.1
20260901150038 89 169 3.0 3.0 0.00 0.00 0.00 52 1020.1
20260901145537 89 147 3.0 5.0 0.00 0.00 0.00 53 1019.8
20260901145031 89 326 1.0 1.0 0.00 0.00 0.00 53 1019.8
20260901144526 89 189 2.0 2.0 0.00 0.00 0.00 53 1020.1
20260901144021 89 218 2.0 2.0 0.00 0.00 0.00 53 1019.8
20260901143516 88 52 2.0 2.0 0.00 0.00 0.00 54 1020.1
20260901143013 86 294 0.0 0.0 0.00 0.00 0.00 57 1020.1
20260901142507 86 328 0.0 0.0 0.00 0.00 0.00 60 1020.1
20260901142002 86 122 2.0 2.0 0.00 0.00 0.00 60 1020.1
20260901141502 85 324 0.0 0.0 0.00 0.00 0.00 63 1020.1
20260901140958 84 350 0.0 0.0 0.00 0.00 0.00 63 1019.8
20260901140455 82 347 0.0 0.0 0.00 0.00 0.00 68 1020.1
20260901135949 81 349 0.0 0.0 0.00 0.00 0.00 71 1020.1
20260901135444 80 260 0.0 0.0 0.00 0.00 0.00 72 1020.1
20260901134940 80 260 0.0 0.0 0.00 0.00 0.00 71 1020.1
20260901134436 80 260 0.0 0.0 0.00 0.00 0.00 71 1020.1
20260901133936 78 260 1.0 1.0 0.00 0.00 0.00 72 1020.1
20260901133435 77 260 0.0 0.0 0.00 0.00 0.00 73 1020.1
20260901132934 77 260 0.0 0.0 0.00 0.00 0.00 74 1020.1
20260901132428 77 260 0.0 0.0 0.00 0.00 0.00 73 1020.1
20260901131927 75 260 0.0 0.0 0.00 0.00 0.00 76 1020.1
20260901131427 74 260 0.0 0.0 0.00 0.00 0.00 79 1020.1
20260901130923 73 260 0.0 0.0 0.00 0.00 0.00 80 1019.8
20260901130423 72 260 0.0 0.0 0.00 0.00 0.00 81 1019.8
20260901125920 71 260 0.0 0.0 0.00 0.00 0.00 83 1019.8
20260901125415 71 260 0.0 0.0 0.00 0.00 0.00 84 1019.8
20260901124915 71 281 0.0 0.0 0.00 0.00 0.00 84 1019.8
20260901124410 70 283 0.0 0.0 0.00 0.00 0.00 85 1019.8
20260901123905 69 283 1.0 0.0 0.00 0.00 0.00 87 1019.8
20260901123400 68 312 0.0 0.0 0.00 0.00 0.00 90 1019.8
20260901122858 68 312 0.0 0.0 0.00 0.00 0.00 90 1019.8
20260901122353 68 312 0.0 0.0 0.00 0.00 0.00 91 1019.4
20260901121852 68 313 0.0 0.0 0.00 0.00 0.00 92 1019.8
20260901121347 67 313 0.0 0.0 0.00 0.00 0.00 92 1019.8
20260901120842 67 313 0.0 0.0 0.00 0.00 0.00 93 1019.4
20260901120336 67 312 0.0 0.0 0.00 0.00 0.00 93 1019.4
20260901115832 67 312 0.0 0.0 0.00 0.00 0.00 93 1019.1
20260901115327 67 312 0.0 0.0 0.00 0.00 0.00 93 1019.1
20260901114825 67 312 0.0 0.0 0.00 0.00 0.00 93 1019.4
20260901114320 67 312 0.0 0.0 0.00 0.00 0.00 93 1019.1
20260901113818 67 312 0.0 0.0 0.00 0.00 0.00 93 1019.1
20260901113312 67 312 0.0 0.0 0.00 0.00 0.00 93 1019.1
20260901112807 67 312 0.0 0.0 0.00 0.00 0.00 92 1019.1
20260901112306 67 312 0.0 0.0 0.00 0.00 0.00 92 1019.1
20260901111757 67 313 0.0 0.0 0.00 0.00 0.00 92 1019.1
20260901111256 67 313 0.0 0.0 0.00 0.00 0.00 92 1019.1
20260901110755 67 315 0.0 0.0 0.00 0.00 0.00 93 1019.1
20260901110250 67 315 0.0 0.0 0.00 0.00 0.00 93 1018.8
20260901105747 67 315 0.0 0.0 0.00 0.00 0.00 93 1019.1
20260901105246 67 317 0.0 0.0 0.00 0.00 0.00 92 1018.8
20260901104742 67 317 0.0 0.0 0.00 0.00 0.00 92 1019.1
20260901104237 67 317 0.0 0.0 0.00 0.00 0.00 92 1019.1
20260901103737 67 317 0.0 0.0 0.00 0.00 0.00 92 1019.1
20260901103232 67 317 0.0 0.0 0.00 0.00 0.00 92 1018.8
20260901102726 67 317 0.0 0.0 0.00 0.00 0.00 92 1018.8
20260901102226 67 317 0.0 0.0 0.00 0.00 0.00 92 1018.4
20260901101723 68 317 0.0 0.0 0.00 0.00 0.00 92 1019.1
20260901101222 68 318 0.0 0.0 0.00 0.00 0.00 92 1019.1
20260901100716 68 319 0.0 0.0 0.00 0.00 0.00 91 1018.8
20260901100212 68 285 0.0 0.0 0.00 0.00 0.00 91 1018.8
20260901095710 68 285 0.0 0.0 0.00 0.00 0.00 92 1018.8
20260901095208 68 285 0.0 0.0 0.00 0.00 0.00 92 1018.8
20260901094707 68 285 0.0 0.0 0.00 0.00 0.00 92 1018.8
20260901094203 68 285 0.0 0.0 0.00 0.00 0.00 92 1018.4
20260901093658 68 285 0.0 0.0 0.00 0.00 0.00 92 1018.4
20260901093156 68 285 0.0 0.0 0.00 0.00 0.00 92 1018.8
20260901092652 68 285 0.0 0.0 0.00 0.00 0.00 92 1018.4
20260901092148 68 285 0.0 0.0 0.00 0.00 0.00 91 1018.8
20260901091643 68 285 0.0 0.0 0.00 0.00 0.00 92 1018.4
20260901091138 68 285 0.0 0.0 0.00 0.00 0.00 92 1018.8
20260901090632 68 285 0.0 0.0 0.00 0.00 0.00 92 1018.4
20260901090128 68 285 0.0 0.0 0.00 0.00 0.00 92 1018.8
20260901085624 68 285 0.0 0.0 0.00 0.00 0.00 91 1018.4
20260901085120 68 285 0.0 0.0 0.00 0.00 0.00 91 1018.8
20260901084616 68 285 0.0 0.0 0.00 0.00 0.00 91 1018.4
20260901084112 69 285 0.0 0.0 0.00 0.00 0.00 90 1018.8
20260901083606 69 285 0.0 0.0 0.00 0.00 0.00 89 1018.8
20260901083104 69 285 0.0 0.0 0.00 0.00 0.00 89 1018.4
20260901082559 69 285 0.0 0.0 0.00 0.00 0.00 89 1018.4
20260901082055 69 286 0.0 0.0 0.00 0.00 0.00 89 1018.4
20260901081549 69 285 0.0 0.0 0.00 0.00 0.00 89 1018.4
20260901081044 69 286 0.0 0.0 0.00 0.00 0.00 89 1018.4
20260901080543 69 286 0.0 0.0 0.00 0.00 0.00 89 1018.4
20260901080037 69 285 0.0 0.0 0.00 0.00 0.00 89 1018.1
20260901075533 69 285 0.0 0.0 0.00 0.00 0.00 89 1018.4
20260901075032 69 285 0.0 0.0 0.00 0.00 0.00 89 1018.4
20260901074532 69 285 0.0 0.0 0.00 0.00 0.00 88 1018.4
20260901074027 69 285 0.0 0.0 0.00 0.00 0.00 88 1018.4
20260901073524 70 285 0.0 0.0 0.00 0.00 0.00 88 1018.4
20260901073019 70 285 0.0 0.0 0.00 0.00 0.00 87 1018.1
20260901072514 70 285 0.0 0.0 0.00 0.00 0.00 88 1018.1
20260901072009 70 285 0.0 0.0 0.00 0.00 0.00 88 1018.4
20260901071509 70 285 0.0 0.0 0.00 0.00 0.00 87 1018.1
20260901071007 70 285 0.0 0.0 0.00 0.00 0.00 87 1018.4
20260901070502 70 285 0.0 0.0 0.00 0.00 0.00 87 1018.4
20260901065955 70 285 0.0 0.0 0.00 0.00 0.00 87 1018.1
20260901065451 70 285 0.0 0.0 0.00 0.00 0.00 87 1018.4
20260901064940 70 285 0.0 0.0 0.00 0.00 0.00 87 1018.1
20260901064437 71 285 0.0 0.0 0.00 0.00 0.00 87 1018.4
20260901063934 71 285 0.0 0.0 0.00 0.00 0.00 86 1018.4
20260901063430 71 285 0.0 0.0 0.00 0.00 0.00 86 1018.4
20260901062926 71 285 0.0 0.0 0.00 0.00 0.00 86 1018.4
20260901062421 71 285 0.0 0.0 0.00 0.00 0.00 85 1018.4
20260901061917 71 285 0.0 0.0 0.00 0.00 0.00 85 1018.4
20260901061413 71 285 0.0 0.0 0.00 0.00 0.00 85 1018.1
20260901060908 71 285 0.0 0.0 0.00 0.00 0.00 85 1018.1
20260901060403 71 285 0.0 0.0 0.00 0.00 0.00 85 1018.1
20260901055902 72 285 0.0 0.0 0.00 0.00 0.00 85 1018.4
20260901055359 72 292 0.0 0.0 0.00 0.00 0.00 85 1018.4
20260901054855 71 292 0.0 0.0 0.00 0.00 0.00 85 1018.4
20260901054353 72 292 0.0 0.0 0.00 0.00 0.00 85 1018.1
20260901053848 72 292 0.0 0.0 0.00 0.00 0.00 85 1018.1
20260901053343 72 292 0.0 0.0 0.00 0.00 0.00 85 1018.1